| time (UTC) | temp F | wind direction | speed MPH | gust MPH | rain 1hr in | rain 24hr in | rain mn in | humidity % | barometer mb |
| 20260902211501 | 66 | 119 | 6.0 | 10.0 | 0.00 | 0.00 | 0.00 | 88 | 1020.8 |
| 20260902210002 | 66 | 102 | 5.0 | 10.0 | 0.00 | 0.00 | 0.00 | 87 | 1020.9 |
| 20260902204600 | 66 | 107 | 8.0 | 10.0 | 0.00 | 0.00 | 0.00 | 87 | 1021.0 |
| 20260902203058 | 66 | 111 | 6.0 | 11.0 | 0.00 | 0.00 | 0.00 | 87 | 1021.2 |
| 20260902201555 | 65 | 85 | 9.0 | 13.0 | 0.00 | 0.00 | 0.00 | 88 | 1021.3 |
| 20260902200038 | 66 | 83 | 9.0 | 13.0 | 0.00 | 0.00 | 0.00 | 87 | 1021.7 |
| 20260902194540 | 66 | 360 | 6.0 | 10.0 | 0.00 | 0.00 | 0.00 | 86 | 1021.8 |
| 20260902193026 | 66 | 107 | 7.0 | 10.0 | 0.00 | 0.00 | 0.00 | 86 | 1021.8 |
| 20260902191535 | 66 | 98 | 7.0 | 13.0 | 0.00 | 0.00 | 0.00 | 86 | 1021.7 |
| 20260902190025 | 66 | 111 | 9.0 | 14.0 | 0.00 | 0.00 | 0.00 | 85 | 1021.7 |
| 20260902184524 | 66 | 96 | 10.0 | 16.0 | 0.00 | 0.00 | 0.00 | 85 | 1021.6 |
| 20260902183026 | 66 | 92 | 9.0 | 17.0 | 0.00 | 0.00 | 0.00 | 85 | 1021.6 |
| 20260902181523 | 66 | 77 | 8.0 | 13.0 | 0.00 | 0.00 | 0.00 | 86 | 1021.8 |
| 20260902180022 | 65 | 83 | 8.0 | 11.0 | 0.00 | 0.00 | 0.00 | 86 | 1021.9 |
| 20260902174523 | 65 | 84 | 9.0 | 14.0 | 0.00 | 0.00 | 0.00 | 86 | 1021.9 |
| 20260902173009 | 65 | 72 | 11.0 | 14.0 | 0.00 | 0.00 | 0.00 | 86 | 1021.9 |
| 20260902171509 | 65 | 91 | 10.0 | 14.0 | 0.00 | 0.00 | 0.00 | 87 | 1022.0 |
| 20260902170010 | 65 | 81 | 8.0 | 14.0 | 0.00 | 0.00 | 0.00 | 87 | 1022.0 |
| 20260902164509 | 65 | 80 | 10.0 | 14.0 | 0.00 | 0.00 | 0.00 | 86 | 1021.9 |
| 20260902163007 | 65 | 75 | 9.0 | 14.0 | 0.00 | 0.00 | 0.00 | 87 | 1022.0 |
| 20260902161516 | 65 | 69 | 10.0 | 14.0 | 0.00 | 0.00 | 0.00 | 89 | 1022.2 |
| 20260902160008 | 65 | 86 | 10.0 | 15.0 | 0.00 | 0.00 | 0.00 | 90 | 1022.6 |
| 20260902154515 | 65 | 92 | 8.0 | 12.0 | 0.00 | 0.00 | 0.00 | 91 | 1022.6 |
| 20260902153005 | 65 | 96 | 8.0 | 12.0 | 0.00 | 0.00 | 0.00 | 91 | 1022.8 |
| 20260902151554 | 64 | 87 | 6.0 | 10.0 | 0.00 | 0.00 | 0.00 | 92 | 1023.0 |
| 20260902150052 | 64 | 75 | 7.0 | 11.0 | 0.00 | 0.00 | 0.00 | 92 | 1022.7 |
| 20260902144550 | 64 | 75 | 7.0 | 12.0 | 0.00 | 0.00 | 0.00 | 93 | 1022.4 |
| 20260902143049 | 64 | 78 | 9.0 | 13.0 | 0.00 | 0.00 | 0.00 | 94 | 1022.2 |
| 20260902141548 | 63 | 82 | 9.0 | 14.0 | 0.00 | 0.00 | 0.00 | 94 | 1022.1 |
| 20260902140048 | 63 | 64 | 9.0 | 12.0 | 0.00 | 0.07 | 0.00 | 94 | 1021.9 |
| 20260902134547 | 63 | 84 | 9.0 | 11.0 | 0.00 | 0.07 | 0.00 | 94 | 1021.9 |
| 20260902133044 | 64 | 61 | 5.0 | 9.0 | 0.00 | 0.07 | 0.00 | 94 | 1022.0 |
| 20260902131532 | 63 | 78 | 7.0 | 10.0 | 0.00 | 0.07 | 0.00 | 94 | 1022.1 |
| 20260902130031 | 63 | 80 | 7.0 | 10.0 | 0.00 | 0.13 | 0.00 | 94 | 1021.8 |
| 20260902124531 | 63 | 85 | 3.0 | 10.0 | 0.00 | 0.13 | 0.00 | 94 | 1022.0 |
| 20260902123033 | 63 | 87 | 6.0 | 10.0 | 0.00 | 0.13 | 0.00 | 94 | 1022.0 |
| 20260902121529 | 63 | 73 | 4.0 | 9.0 | 0.00 | 0.13 | 0.00 | 94 | 1022.2 |
| 20260902120030 | 63 | 68 | 7.0 | 10.0 | 0.00 | 0.13 | 0.00 | 94 | 1022.1 |
| 20260902114536 | 63 | 74 | 6.0 | 10.0 | 0.00 | 0.13 | 0.00 | 95 | 1022.1 |
| 20260902113035 | 63 | 75 | 7.0 | 12.0 | 0.00 | 0.13 | 0.00 | 95 | 1021.9 |
| 20260902111520 | 63 | 95 | 6.0 | 10.0 | 0.00 | 0.13 | 0.00 | 96 | 1021.7 |
| 20260902110013 | 63 | 76 | 7.0 | 10.0 | 0.00 | 0.13 | 0.00 | 96 | 1021.6 |
| 20260902104513 | 63 | 69 | 5.0 | 10.0 | 0.00 | 0.13 | 0.00 | 96 | 1021.4 |
| 20260902103020 | 63 | 73 | 6.0 | 10.0 | 0.00 | 0.13 | 0.00 | 96 | 1021.4 |
| 20260902101505 | 63 | 59 | 4.0 | 9.0 | 0.00 | 0.13 | 0.00 | 96 | 1021.1 |
| 20260902100005 | 63 | 84 | 6.0 | 8.0 | 0.00 | 0.13 | 0.00 | 96 | 1021.1 |
| 20260902094502 | 63 | 39 | 4.0 | 6.0 | 0.00 | 0.13 | 0.00 | 95 | 1021.1 |
| 20260902093100 | 63 | 74 | 5.0 | 9.0 | 0.00 | 0.13 | 0.00 | 95 | 1020.9 |
| 20260902091541 | 63 | 81 | 6.0 | 8.0 | 0.00 | 0.13 | 0.00 | 95 | 1020.6 |
| 20260902090039 | 63 | 62 | 3.0 | 7.0 | 0.00 | 0.13 | 0.00 | 95 | 1020.6 |
| 20260902084528 | 63 | 68 | 3.0 | 4.0 | 0.00 | 0.13 | 0.00 | 95 | 1020.7 |
| 20260902083026 | 63 | 48 | 2.0 | 4.0 | 0.00 | 0.13 | 0.00 | 94 | 1020.9 |
| 20260902081525 | 63 | 50 | 0.0 | 2.0 | 0.00 | 0.13 | 0.00 | 94 | 1020.8 |
| 20260902080025 | 63 | 42 | 1.0 | 3.0 | 0.00 | 0.13 | 0.00 | 94 | 1021.0 |
| 20260902074523 | 63 | 9 | 0.0 | 2.0 | 0.00 | 0.13 | 0.00 | 94 | 1020.9 |
| 20260902073022 | 63 | 36 | 0.0 | 0.0 | 0.00 | 0.13 | 0.00 | 94 | 1020.8 |
| 20260902071520 | 64 | 80 | 0.0 | 0.0 | 0.00 | 0.13 | 0.00 | 93 | 1020.6 |
| 20260902070020 | 64 | 80 | 0.0 | 0.0 | 0.00 | 0.13 | 0.00 | 94 | 1020.7 |
| 20260902064508 | 64 | 80 | 0.0 | 0.0 | 0.00 | 0.13 | 0.00 | 93 | 1020.6 |
| 20260902063009 | 64 | 355 | 0.0 | 0.0 | 0.00 | 0.13 | 0.00 | 94 | 1020.6 |
| 20260902061507 | 64 | 355 | 0.0 | 1.0 | 0.00 | 0.13 | 0.00 | 93 | 1020.6 |
| 20260902060007 | 64 | 355 | 0.0 | 2.0 | 0.00 | 0.13 | 0.00 | 93 | 1020.6 |
| 20260902054504 | 64 | 14 | 1.0 | 3.0 | 0.00 | 0.13 | 0.00 | 93 | 1020.6 |
| 20260902053003 | 64 | 9 | 2.0 | 4.0 | 0.00 | 0.13 | 0.00 | 93 | 1020.5 |
| 20260902051501 | 64 | 355 | 1.0 | 3.0 | 0.00 | 0.13 | 0.00 | 92 | 1020.3 |
| 20260902050118 | 64 | 35 | 0.0 | 0.0 | 0.00 | 0.13 | 0.00 | 91 | 1019.8 |
| 20260902044540 | 64 | 36 | 0.0 | 0.0 | 0.00 | 0.13 | 0.00 | 91 | 1019.7 |
| 20260902043039 | 64 | 35 | 0.0 | 2.0 | 0.00 | 0.13 | 0.00 | 91 | 1019.6 |
| 20260902041538 | 63 | 35 | 1.0 | 2.0 | 0.00 | 0.13 | 0.00 | 91 | 1019.5 |
| 20260902040035 | 64 | 40 | 0.0 | 2.0 | 0.00 | 0.13 | 0.00 | 91 | 1019.2 |
| 20260902034534 | 64 | 40 | 1.0 | 2.0 | 0.00 | 0.13 | 0.00 | 90 | 1019.1 |
| 20260902033036 | 64 | 40 | 0.0 | 0.0 | 0.00 | 0.13 | 0.00 | 90 | 1019.0 |
| 20260902031533 | 64 | 40 | 0.0 | 2.0 | 0.00 | 0.13 | 0.00 | 89 | 1019.1 |
| 20260902030032 | 64 | 40 | 0.0 | 0.0 | 0.00 | 0.13 | 0.00 | 89 | 1019.1 |
| 20260902024518 | 64 | 40 | 0.0 | 0.0 | 0.00 | 0.13 | 0.00 | 89 | 1019.0 |
| 20260902023019 | 64 | 40 | 0.0 | 0.0 | 0.00 | 0.13 | 0.00 | 89 | 1019.0 |
| 20260902021518 | 64 | 40 | 0.0 | 2.0 | 0.00 | 0.13 | 0.00 | 90 | 1019.2 |
| 20260902020022 | 65 | 40 | 0.0 | 2.0 | 0.00 | 0.13 | 0.00 | 88 | 1019.2 |
| 20260902014531 | 65 | 15 | 0.0 | 2.0 | 0.00 | 0.13 | 0.00 | 88 | 1019.2 |
| 20260902013015 | 64 | 15 | 0.0 | 1.0 | 0.00 | 0.13 | 0.00 | 88 | 1019.1 |
| 20260902011533 | 65 | 111 | 0.0 | 2.0 | 0.00 | 0.13 | 0.00 | 87 | 1018.8 |
| 20260902010016 | 65 | 109 | 0.0 | 1.0 | 0.00 | 0.13 | 0.00 | 86 | 1018.9 |
| 20260902004503 | 64 | 324 | 0.0 | 2.0 | 0.00 | 0.13 | 0.00 | 86 | 1019.0 |
| 20260902003002 | 64 | 303 | 0.0 | 2.0 | 0.00 | 0.13 | 0.00 | 87 | 1018.9 |
| 20260902001620 | 65 | 60 | 0.0 | 2.0 | 0.00 | 0.13 | 0.00 | 88 | 1018.4 |
| 20260902000059 | 65 | 76 | 0.0 | 2.0 | 0.00 | 0.13 | 0.00 | 86 | 1018.3 |
| 20260901234559 | 65 | 140 | 0.0 | 0.0 | 0.00 | 0.13 | 0.00 | 84 | 1018.5 |
| 20260901233059 | 66 | 140 | 0.0 | 0.0 | 0.00 | 0.13 | 0.00 | 81 | 1018.5 |
| 20260901231557 | 66 | 140 | 1.0 | 2.0 | 0.00 | 0.13 | 0.00 | 80 | 1018.4 |
| 20260901230056 | 66 | 177 | 0.0 | 2.0 | 0.00 | 0.13 | 0.00 | 80 | 1018.5 |
| 20260901224539 | 66 | 208 | 0.0 | 2.0 | 0.00 | 0.13 | 0.00 | 81 | 1018.3 |
| 20260901223034 | 65 | 126 | 0.0 | 2.0 | 0.00 | 0.13 | 0.00 | 87 | 1018.3 |
| 20260901221520 | 65 | 117 | 1.0 | 4.0 | 0.00 | 0.13 | 0.00 | 90 | 1018.3 |
| 20260901220020 | 65 | 104 | 2.0 | 5.0 | 0.00 | 0.13 | 0.00 | 91 | 1018.3 |
| 20260901214534 | 65 | 107 | 2.0 | 5.0 | 0.00 | 0.13 | 0.00 | 92 | 1018.1 |
| 20260901213016 | 65 | 109 | 5.0 | 7.0 | 0.00 | 0.13 | 0.00 | 92 | 1018.1 |